DELTA 1 DEB, 14472

Orbit data source: Space-Track

DELTA 1 DEB, 14472 is space debris in SSO originally from a launch on Thu, 29 Jul 1976 UTC launched from the Air Force Western Test Range (AFWTR). Debris objects in space refer to the collection of defunct objects orbiting the Earth. Examples of debris include non-operational satellites, rocket bodies, and fragments generated from explosions, collisions, or faulty payload assembly.

Loading next visibility...
Identifier
14472, 1976-077EP
Orbit
SSO
Country
Flag of USUS
Related business
Manufacturer
Unknown
Mission
Spacecraft
Bus & Motor
Unknown
Mass
Unknown
Launch date (UTC)
1976-07-29 (50 years ago)
Launch vehicle
Unknown
Launch site
Air Force Western Test Range (AFWTR)
Object type
Payload
Rocket body
Debris
Shape & HBR
Unknown shape, 0.1 m
Radar Cross Section
Medium (>0.1 m² and <1 m²)

Expand to show TLE details & history
Last TLE update: 1 day ago

TLE from 1 day ago
0 DELTA 1 DEB
1 14472U 76077EP  26255.41884918 -.00000051  00000-0 -54059-4 0  9993
2 14472 102.8420 242.9222 0155610  84.6862  74.0048 12.16370771943893
Epoch: 2026-09-12T10:03Z
TLE epoch observation values (Epoch: 2026-09-12T10:03:08.569Z)
Latitude
19.07812°
Longitude
-74.79157°
Altitude
1,577.964 km
Speed
7.095 km/s
True Right ascension
04h 29m 41s
True Declination
18° 58' 59"
Sunlit
Object was in daylight at epoch
Visualization orbit readout
Latitude
Unknown
Longitude
Unknown
Altitude
Unknown
Speed
Unknown
Apparent Right ascension
Unknown
Apparent Declination
Unknown
Sunlit
N/A
Visualization observer readout
Local Sidereal Time
04:39:09
Azimuth
Unknown
Elevation
Unknown
Doppler factor
Unknown
Orbital elements
Apogee altitude
1,730.286 km
Perigee altitude
1,481.802 km
Semi-major axis
7,984.181 km
Eccentricity
0.01556
Inclination
102.842°
RAAN
242.9222°
Arg. of periapsis
84.6862°
True anomaly
75.7279°
Mean anomaly
74.0048°
Eccentric anomaly
74.86546°
Mean motion
3.04227 °/min
Orbital period
118.33 mins
BSTAR
-0.000054059
Loading maneuver chart data...
Computing Atmospheric mass density...
Loading historical data...
Loading historical data...
Loading historical data...
Loading historical data...
Loading historical data...
Loading historical data...
Loading historical data...

Documentation

Showing up to 5 results
|